Tracking 33094 objects as of 25-Jan-2026
HD Live streaming from Space Station
objects crossing your sky now

THOR ABLESTAR DEB

Track THOR ABLESTAR DEB now!
10-day predictions


NORAD ID: 3842
Int'l Code: 1961-015JF
Perigee: 901.8 km
Apogee: 1,096.5 km
Inclination: 66.7 °
Period: 104.9 minutes
Semi major axis: 7370 km
RCS: 0.0118 m2 (small)
Launch date: June 29, 1961
Source: United States (US)
Launch site: AIR FORCE EASTERN TEST RANGE (AFETR)

Note: This is SATELLITE DEBRIS
Your satellite tracking list
Your tracking list is empty




NASA's NSSDC Master Catalog

Two Line Element Set (TLE):
1 03842U 61015JF  26024.56538932  .00000445  00000-0  53518-3 0  9993
2 03842  66.7394   3.7297 0132100 208.1777 151.2102 13.72105728215478
Source of the keplerian elements: AFSPC